Akron, CO

1:57 PM MST on December 11, 2019 (GMT -0700)
Akron-Washington County

Weather History for KAKO - October, 2019

Change the Weather History Date:

Tuesday, October 22, 2019

  Actual Average Record
Temperature  
Mean Temperature 45 °F 48 °F  
Max Temperature 62 °F 62 °F 84 °F (2003)
Min Temperature 27 °F 35 °F 24 °F (1984)
Degree Days  
Heating Degree Days 20    
Month to date heating degree days 349  
Cooling Degree Days 0    
Month to date cooling degree days 2  
Moisture  
Dew Point 24 °F    
Average Humidity 49    
Maximum Humidity 78    
Minimum Humidity 20    
Precipitation  
Precipitation 0.00 in 0.04 in 0.58 in (2015)
Month to date precipitation 0.06 0.88  
Year to date precipitation 15.16 15.53  
Snow  
Snow 0.00 in - - ()
Snow Depth 0.00 in    
Sea Level Pressure  
Sea Level Pressure 30.05 in    
Wind  
Wind Speed 11 mph (West)    
Max Wind Speed 22 mph    
Max Gust Speed 29 mph    
Visibility 10 miles    
Events      
T = Trace of Precipitation, MM = Missing Value Source: NWS Daily Summary

Daily Weather History Graph

Daily Weather History Graph

Search for Another Location

Airport or City:

Astronomy

Oct. 22, 2019 Rise Set
Actual Time 7:10 AM MDT 6:03 PM MDT
Civil Twilight 6:43 AM MDT 6:30 PM MDT
Nautical Twilight 6:11 AM MDT 7:02 PM MDT
Astronomical Twilight 5:40 AM MDT 7:33 PM MDT
Moon 12:22 AM MDT (10/22) 3:14 PM MDT (10/22)
Length of Visible Light 11h 47m
Length of Day
10h 52m
Last Quarter, 36% of the Moon is Illuminated
Oct 22
Last Quarter
Oct 27
New
Nov 4
First Quarter
Nov 12
Full
Nov 19
Last Quarter

Hourly Weather History & Observations

Time (MDT) Temp. Windchill Dew Point Humidity Pressure Visibility Wind Dir Wind Speed Gust Speed Precip Events Conditions
12:53 AM 36.0 °F 29.0 °F 24.1 °F 62% 30.14 in 10.0 mi WNW 9.2 mph - N/A   Mostly Cloudy
1:53 AM 36.0 °F 27.5 °F 26.1 °F 67% 30.14 in 10.0 mi NNW 12.7 mph - N/A   Mostly Cloudy
2:53 AM 36.0 °F 28.0 °F 26.1 °F 67% 30.14 in 10.0 mi NW 11.5 mph - N/A   Overcast
3:53 AM 34.0 °F 25.0 °F 25.0 °F 70% 30.13 in 10.0 mi NW 12.7 mph - N/A   Clear
4:53 AM 28.9 °F 19.8 °F 23.0 °F 78% 30.17 in 10.0 mi West 10.4 mph - N/A   Clear
5:53 AM 30.0 °F 21.7 °F 24.1 °F 79% 30.17 in 10.0 mi WSW 9.2 mph - N/A   Partly Cloudy
6:53 AM 30.9 °F 21.2 °F 24.1 °F 76% 30.17 in 10.0 mi West 12.7 mph - N/A   Clear
7:53 AM 32.0 °F 22.1 °F 24.1 °F 73% 30.19 in 10.0 mi WSW 13.8 mph - N/A   Clear
8:53 AM 42.1 °F 34.9 °F 24.1 °F 49% 30.18 in 10.0 mi West 13.8 mph - N/A   Scattered Clouds
9:53 AM 48.0 °F - 24.1 °F 39% 30.16 in 10.0 mi West 15.0 mph 25.3 mph N/A   Clear
10:53 AM 52.0 °F - 24.1 °F 34% 30.12 in 10.0 mi West 13.8 mph - N/A   Clear
11:53 AM 53.1 °F - 19.9 °F 27% 30.09 in 10.0 mi SW 6.9 mph 18.4 mph N/A   Clear
12:53 PM 57.0 °F - 21.0 °F 25% 30.02 in 10.0 mi West 8.1 mph 20.7 mph N/A   Clear
1:53 PM 59.0 °F - 21.0 °F 23% 29.98 in 10.0 mi WSW 8.1 mph - N/A   Clear
2:53 PM 61.0 °F - 21.9 °F 22% 29.94 in 10.0 mi WNW 18.4 mph 25.3 mph N/A   Partly Cloudy
3:53 PM 62.1 °F - 21.9 °F 21% 29.93 in 10.0 mi West 13.8 mph - N/A   Partly Cloudy
4:53 PM 62.1 °F - 21.9 °F 21% 29.93 in 10.0 mi West 11.5 mph - N/A   Clear
5:53 PM 55.9 °F - 23.0 °F 28% 29.93 in 10.0 mi WNW 5.8 mph - N/A   Mostly Cloudy
6:53 PM 57.9 °F - 25.0 °F 28% 29.93 in 10.0 mi NW 12.7 mph - N/A   Overcast
7:53 PM 55.9 °F - 27.0 °F 33% 29.93 in 10.0 mi Calm Calm - N/A   Overcast
8:53 PM 50.0 °F - 26.1 °F 39% 29.91 in 10.0 mi Calm Calm - N/A   Overcast
9:53 PM 51.1 °F - 26.1 °F 38% 29.88 in 10.0 mi SSW 6.9 mph - N/A   Overcast
11:53 PM 48.9 °F - 27.0 °F 43% 29.86 in 10.0 mi NW 5.8 mph - N/A   Overcast